P/2019 T6 ( PanSTARRS )

Japanese version
Home page
Updated on December 9, 2019

---------------------------------------------------------------------

* Profile

Discovery Date October 8, 2019
Magnitude 19.6 mag
Discoverer Pan-STARRS 2 telescope (Haleakala)

* Pictures

* Orbital Elements

Epoch 2019 Nov. 13.0 TT = JDT 2458800.5
T 2019 Nov. 7.77531 TT                                  Williams
q   2.0519157            (2000.0)            P               Q
n   0.07786511     Peri.  328.91771     +0.73767843     -0.60300655
a   5.4313455      Node    71.30961     +0.66637348     +0.57798923
e   0.6222086      Incl.   18.69756     +0.10852151     +0.54982865
P  12.7
From 114 observations 2019 Oct. 8-Nov. 2, mean residual 0".4.

* Magnitudes Graph

        m1 = 15.0 + 5 log d + 10.0 log r

---------------------------------------------------------------------

The orbital elements are published on M.P.E.C. 2019-V116.
The magnitudes graphs are made with Comet for Windows.

---------------------------------------------------------------------

Copyright(C) Seiichi Yoshida (comet@aerith.net). All rights reserved.